Weather in Pervoavgustovskiy

Russia / Kursk Oblast     52°13′13″N   35°03′35″E
temp.,
°C
wind,
m/s
gust,
m/s
humid.,
%
clouds,
%
prec.,
mm/h
press.,
hPa
HPBL,
m
16 may, sun
sun1600:00+12ssw33922 0.0 101236
03:00+11s349276 0.0 101254
06:00+12s2393100 0.3 101348
09:00+16ssw238013 0.6 1013363
12:00+20ssw46620 0.3 10131285
15:00+21ssw4557100 0.3 10131821
18:00+19s2266100 0.0 101216
21:00+16ene2271100 0.0 101212
17 may, mon
mon1700:00+14ene488151 0.0 1011117
03:00+13ene41184100 0.1 1010189
06:00+14ene6139292 0.9 1008279
09:00+20e7147994 0.9 1007549
12:00+23ese81564100 0.0 1006962
15:00+24se814635 0.0 10051470
18:00+22se71272100 0.0 1005964
21:00+19ese716794 0.0 1005501
18 may, tue
tue1800:00+17se6148993 0.0 1005422
03:00+15ese4797100 0.0 1006139
06:00+16se4896100 0.0 1006222
09:00+20sse6982100 0.1 1006811
12:00+20sse4671100 0.6 1006725
15:00+20sse6875100 1.3 1005983
18:00+16s259081 3.8 1005255
21:00+14se3894100 3.8 1005174
19 may, wed
wed1900:00+14ese3597100 0.6 1005105
03:00+13se379630 0.1 1004202
06:00+13sse4109683 0.0 1005398
09:00+15sse698140 0.1 10051037
12:00+17sse6870100 0.1 10051356
15:00+18se696694 0.4 10051496
18:00+16sse578099 1.1 1004849
21:00+12sse369316 2.8 1004111
20 may, thu
thu2000:00+10sse369713 0.0 1004133
03:00+10s369882 0.0 1006163
06:00+10ssw5997100 0.0 1006368
09:00+10sw6995100 0.1 1008523
12:00+12wsw6988100 0.1 1010834
15:00+13sw4984100 0.3 1012867
18:00+16wsw4674100 0.1 10131112
21:00+12ssw3385100 0.1 101441